Probability
0 0 0 0 0 0 0 0 0 0 1 1 1 0 1 3 4 3 1 0 0 0 0 0 0 0 0 0 0 0 0 0 0 0 0 0 0 0 0 0 0 0 0 0
0 0 0 0 0 0 0 0 0 0 1 1 0 0 1 4 5 3 1 0 0 0 0 0 0 0 0 0 0 0 0 0 0 0 0 0 0 0 0 0 0 0 0 0
0 0 0 0 0 0 0 0 0 0 0 0 0 0 1 4 5 3 1 0 0 0 0 0 0 0 0 0 0 0 0 0 0 0 0 0 0 0 0 0 0 0 0 0
0 0 0 0 0 0 0 0 0 0 0 0 0 0 0 2 3 1 0 0 0 0 0 0 0 0 0 0 0 0 0 0 0 0 0 0 0 0 0 0 0 0 0 0
0 0 0 0 0 0 0 0 0 0 0 0 0 0 0 1 1 1 0 0 0 0 0 0 0 0 0 0 0 0 0 0 0 0 0 0 0 0 0 0 0 0 0 0
0 0 0 0 0 0 0 0 0 0 0 0 0 0 0 1 1 0 0 0 0 0 0 0 0 0 0 0 0 0 0 0 0 0 0 0 0 0 0 0 0 0 0 0
0 0 0 0 0 0 0 0 0 0 0 0 0 0 0 1 0 0 0 0 0 0 0 0 0 0 0 0 0 0 0 0 0 0 0 0 0 0 0 0 0 0 0 0
0 0 0 0 0 0 0 0 0 0 0 0 0 0 0 0 0 0 0 0 0 0 0 0 0 0 0 0 0 0 0 0 0 0 0 0 0 0 0 0 0 0 0 0
0 0 0 0 0 0 0 0 0 0 0 0 0 0 0 0 0 0 0 0 0 0 0 0 0 0 0 0 0 0 0 0 0 0 0 0 0 0 0 0 0 0 0 0
0 0 0 0 0 0 0 0 0 0 0 0 0 0 0 0 0 0 0 0 0 0 0 0 0 0 0 0 0 0 0 0 0 0 0 0 0 0 0 0 0 0 0 0
0 0 0 0 0 0 0 0 0 0 0 0 0 0 0 0 0 0 0 0 0 0 0 0 0 0 0 0 0 0 0 0 0 0 0 0 0 0 0 0 0 0 0 0
0 0 0 0 0 0 0 0 0 0 0 0 0 0 0 0 0 0 0 0 0 0 0 0 0 0 0 0 0 0 0 0 0 0 0 0 0 0 0 0 0 0 0 0
0 0 0 0 0 0 0 0 0 0 0 0 0 0 0 0 0 0 0 0 0 0 0 0 0 0 0 0 0 0 0 0 0 0 0 0 0 0 0 0 0 0 0 0
0 0 0 0 0 0 0 0 0 0 0 0 0 0 0 0 0 0 0 0 0 0 0 0 0 0 0 0 0 0 0 0 0 0 0 0 0 0 0 0 0 0 0 0
0 0 0 0 0 0 0 0 0 0 0 0 0 0 0 0 0 0 0 0 0 0 0 0 0 0 0 0 0 0 0 0 0 0 0 0 0 0 0 0 0 0 0 0
0 0 0 0 0 0 0 0 0 0 0 0 0 0 0 0 0 0 0 0 0 0 0 0 0 0 0 0 0 0 0 0 0 0 0 0 0 0 0 0 0 0 0 0
0 0 0 0 0 0 0 0 0 0 0 0 0 0 0 0 0 0 0 0 0 0 0 0 0 0 0 0 0 0 0 0 0 0 0 0 0 0 0 0 0 0 0 0
0 0 0 0 0 0 0 0 0 0 0 0 0 0 0 0 0 0 0 0 0 0 0 0 0 0 0 0 0 0 0 0 0 0 0 0 0 0 0 0 0 0 0 0
0 0 0 0 0 0 0 0 0 0 0 0 0 0 0 0 0 0 0 0 0 0 0 0 0 0 0 0 0 0 0 0 0 0 0 0 0 0 0 0 0 0 0 0
0 0 0 0 0 0 0 0 0 0 0 0 0 0 0 0 0 0 0 0 0 0 0 0 0 0 0 0 0 0 0 0 0 0 0 0 0 0 0 0 0 0 0 0
0 0 0 0 0 0 0 0 0 0 0 0 0 0 0 0 0 0 0 0 0 0 0 0 0 0 0 0 0 0 0 0 0 0 0 0 0 0 0 0 0 0 0 0
0 0 0 0 0 0 0 0 0 0 0 0 0 0 0 0 0 0 0 0 0 0 0 0 0 0 0 0 0 0 0 0 0 0 0 0 0 0 0 0 0 0 0 0
0 0 0 0 0 0 0 0 0 0 0 0 0 0 0 0 0 0 0 0 0 0 0 0 0 0 0 0 0 0 0 0 0 0 0 0 0 0 0 0 0 0 0 0
0 0 0 0 0 0 0 0 0 0 0 0 0 0 0 0 0 0 0 0 0 0 0 0 0 0 0 0 0 0 0 0 0 0 0 0 0 0 0 0 0 0 0 0
0 0 0 0 0 0 0 0 0 0 0 0 0 0 0 0 0 0 0 0 0 0 0 0 0 0 0 0 0 0 0 0 0 0 0 0 0 0 0 0 0 0 0 0
0 0 0 0 0 0 0 0 0 0 0 0 0 0 0 0 0 0 0 0 0 0 0 0 0 0 0 0 0 0 0 0 0 0 0 0 0 0 0 0 0 0 0 0
0 0 0 0 0 0 0 0 0 0 0 0 0 0 0 0 0 0 0 0 0 0 0 0 0 0 0 0 0 0 0 0 0 0 0 0 0 0 0 0 0 0 0 0
Wind_Speed
1 1 1 2 2 2 3 5 5 3 2 3 5 6 7 8 9 9 9 9 9 8 7 7 7 6 6 5 5 5 5 6 5 5 5 5 5 5 5 5 5 5 6 6
3 3 2 1 1 2 2 2 2 1 2 5 7 7 7 8 9 9 9 9 9 8 8 7 7 7 6 5 5 5 5 5 5 4 5 5 4 5 5 5 6 6 6 7
3 3 5 2 1 1 0 2 3 3 3 6 7 7 7 8 8 9 9 9 9 8 7 7 6 6 6 5 5 5 5 5 4 4 5 4 4 5 5 5 5 6 6 7
3 4 4 4 3 1 1 2 3 3 5 5 5 6 6 6 7 8 9 9 8 8 7 7 7 6 6 5 5 6 5 5 4 4 4 4 4 4 4 4 5 5 6 6
4 4 2 4 2 2 2 1 3 3 6 7 7 7 6 6 7 7 8 8 8 8 8 7 7 7 6 6 5 5 5 5 4 3 3 3 4 4 4 4 4 4 5 5
4 4 2 3 3 1 4 3 4 3 6 7 7 4 6 7 8 8 8 8 8 8 8 8 7 7 7 6 5 5 5 4 4 3 3 3 4 3 3 3 3 3 4 5
4 3 1 4 1 3 4 4 4 3 5 7 4 3 9 10 10 10 9 9 9 9 8 8 8 7 7 6 5 4 4 4 3 3 3 3 3 2 2 2 3 3 4 4
3 3 2 4 0 2 5 4 4 5 7 7 7 9 11 11 11 11 10 10 9 8 8 8 8 7 7 6 5 4 4 4 4 3 2 3 2 2 2 2 2 3 3 3
2 4 6 3 3 4 3 4 4 5 7 8 9 10 11 11 11 11 10 10 9 8 8 8 7 6 7 6 5 5 4 4 3 3 2 2 1 2 1 1 1 2 2 3
2 4 4 4 4 3 3 4 5 7 8 9 10 11 11 11 10 10 10 10 9 9 9 8 7 6 6 6 5 5 5 4 3 3 3 2 0 1 1 2 2 2 3 3
3 5 5 4 4 4 5 6 7 8 8 9 10 11 11 10 10 9 9 9 8 8 9 9 8 7 6 6 6 5 5 4 3 3 3 2 2 2 3 4 4 4 4 3
2 4 3 5 5 5 6 7 8 9 9 9 9 11 11 10 9 9 9 9 9 9 9 9 8 7 7 6 6 5 4 4 3 3 2 2 3 3 2 1 1 1 3 5
3 4 4 6 6 6 6 7 8 8 9 9 9 10 10 10 9 9 10 10 10 9 9 9 8 7 7 6 5 5 4 3 2 2 3 2 2 1 2 4 5 5 4 4
5 5 6 7 7 7 7 8 8 9 9 9 10 10 9 10 10 10 9 9 9 9 9 8 8 7 7 6 6 5 5 4 3 3 2 1 1 1 1 1 2 4 6 7
6 5 5 7 8 8 8 9 9 9 10 10 9 10 10 10 10 9 9 9 9 9 9 8 8 7 7 6 6 6 5 4 3 2 2 2 2 2 2 1 1 1 2 6
7 6 7 8 8 9 9 9 9 10 10 10 10 10 10 10 9 9 9 9 10 9 9 8 8 8 7 7 6 5 4 2 3 4 3 3 3 3 2 2 2 2 1 1
8 8 9 8 9 9 8 8 8 9 10 10 10 10 10 10 9 9 9 9 8 8 8 8 8 8 7 7 6 5 5 6 7 6 4 3 3 3 2 3 2 2 2 1
7 7 7 8 8 8 8 8 9 9 9 10 11 10 11 10 10 9 9 9 9 8 8 9 8 8 8 7 6 5 5 4 5 5 4 3 3 3 3 3 3 4 3 4
7 7 7 8 8 8 8 9 9 9 9 10 10 10 10 10 9 9 9 10 10 9 9 9 8 8 8 7 6 6 5 5 5 5 5 4 5 5 4 4 4 4 4 3
8 8 9 9 9 8 8 8 9 8 9 9 10 10 9 9 9 9 9 9 8 7 8 9 10 10 9 9 8 8 7 7 7 6 6 6 6 6 5 5 5 5 5 4
9 9 9 9 9 8 8 9 9 9 9 10 10 10 9 9 9 9 9 8 8 8 8 9 9 9 9 8 10 9 8 8 8 7 7 7 6 6 6 6 6 6 6 6
9 9 9 9 9 8 8 8 8 9 9 9 10 10 9 10 10 9 9 7 6 8 8 9 10 8 7 8 9 10 9 9 8 7 7 7 7 7 7 7 7 6 6 6
8 8 8 8 9 8 8 7 8 8 8 9 9 9 9 8 7 8 8 8 8 10 9 8 7 8 9 10 9 9 9 9 9 8 8 7 8 8 7 8 7 7 7 7
8 8 8 7 7 8 8 7 7 6 7 7 8 8 8 7 7 7 6 7 7 9 9 6 9 11 11 10 10 10 9 9 9 9 9 8 8 8 8 8 8 8 8 10
8 8 8 7 7 6 6 7 7 7 7 6 7 8 8 7 6 6 6 7 9 10 10 9 12 13 12 11 11 11 10 9 8 8 9 9 9 9 9 9 9 9 9 9
8 6 6 5 4 3 4 5 5 5 5 5 5 5 6 6 7 6 6 8 11 10 10 8 11 12 12 12 12 12 11 10 10 10 11 10 11 10 9 9 12 10 10 10
8 6 6 5 5 5 4 4 4 5 4 4 4 4 5 5 6 6 7 7 7 9 9 9 9 10 11 12 12 11 10 10 10 10 10 10 10 10 10 12 10 10 10 10
Wind_Direction
73 75 263 280 280 269 275 305 306 338 15 115 132 132 131 138 144 146 148 150 149 148 142 144 137 128 120 115 107 101 94 86 80 76 71 60 53 50 48 44 45 42 40 39
177 167 190 223 295 276 293 309 298 288 73 105 125 130 137 147 152 152 151 150 151 150 148 148 141 133 125 123 117 107 97 90 85 80 76 63 55 52 53 49 44 41 43 43
213 199 231 215 344 309 28 10 320 328 86 138 145 148 154 157 158 154 152 152 155 155 152 146 140 132 131 127 123 112 101 94 91 84 74 63 59 60 58 54 47 43 43 43
230 221 235 80 65 13 12 43 28 64 112 145 142 137 144 154 154 149 150 151 153 150 146 142 138 134 129 127 124 115 108 105 101 90 82 70 66 64 59 52 46 44 41 40
248 229 187 143 147 282 277 106 79 110 128 131 129 136 135 141 145 146 147 145 145 145 142 140 139 136 132 125 121 118 113 110 101 93 89 80 73 65 57 52 52 49 46 40
244 258 258 87 62 338 260 169 110 133 144 144 166 182 140 142 141 139 138 137 137 139 139 140 139 137 135 129 126 121 117 111 106 101 93 80 71 61 59 58 61 61 58 46
241 247 91 59 27 243 262 61 105 140 146 156 167 62 117 136 137 135 136 137 140 141 140 138 138 140 135 128 119 115 110 106 99 94 101 92 74 58 51 57 60 56 61 64
246 245 98 67 164 358 35 71 119 133 142 143 114 112 127 136 137 140 140 141 143 141 136 136 140 143 136 127 124 124 117 108 99 95 94 96 84 65 55 48 86 82 75 74
7 50 77 79 61 58 65 104 121 135 140 137 131 132 136 138 140 143 143 142 143 139 134 136 142 145 136 133 137 136 130 118 115 111 98 90 96 103 117 99 52 61 73 75
149 125 117 110 98 90 89 106 118 133 142 144 139 140 140 141 144 146 144 144 148 147 144 144 146 145 141 142 145 142 135 131 133 134 130 118 58 65 48 42 44 50 56 56
164 138 142 132 112 108 109 113 121 129 139 145 143 146 146 145 146 147 146 147 151 149 146 147 151 151 150 149 152 150 145 143 149 143 124 128 103 41 15 41 25 350 4 18
144 146 160 132 129 127 129 128 130 135 137 141 146 147 147 146 148 150 150 151 154 154 153 151 155 154 154 157 162 164 159 159 162 148 136 145 136 135 109 5 90 272 306 320
99 121 111 122 132 133 132 133 135 139 140 142 144 147 148 146 149 151 154 157 159 159 157 157 159 158 158 160 165 170 169 164 170 161 159 164 159 168 152 175 208 226 238 251
139 141 142 145 138 137 135 135 136 135 136 139 142 147 148 148 150 155 158 159 160 162 162 162 162 161 161 164 170 177 181 168 200 182 183 187 191 212 214 202 172 177 197 215
165 172 150 140 140 141 142 144 145 143 141 143 146 149 152 154 156 157 158 160 163 168 169 169 168 165 168 170 177 187 193 182 196 206 214 211 225 237 226 217 236 198 168 173
163 158 155 155 153 153 157 160 158 153 152 153 155 156 158 158 158 159 163 168 173 176 174 175 175 171 175 179 186 191 195 182 241 236 227 220 221 233 230 217 224 232 229 198
171 168 168 165 162 162 164 167 164 159 159 160 160 158 160 162 164 166 171 175 180 180 178 181 182 181 183 189 203 205 198 178 198 235 236 236 237 237 239 248 248 244 241 75
181 173 170 169 166 163 163 163 162 161 162 163 161 163 168 172 174 173 175 175 178 181 185 188 188 191 194 197 209 226 214 202 204 221 226 232 248 243 242 243 245 250 241 192
177 170 167 165 163 161 161 160 160 162 163 166 168 172 176 179 178 177 179 182 186 189 190 189 187 205 203 201 215 221 227 223 221 222 227 220 234 242 244 248 251 253 258 255
171 170 166 162 162 159 157 157 158 161 166 170 173 175 180 182 182 184 187 195 200 197 183 184 190 204 209 201 218 230 224 227 227 225 228 232 234 239 241 247 252 256 259 260
166 165 165 163 160 161 161 161 163 167 170 176 180 184 185 185 188 191 196 202 198 198 191 182 202 206 208 202 207 232 229 230 232 233 234 236 239 243 247 249 252 254 255 257
162 162 164 162 163 163 163 166 171 173 174 182 188 190 190 191 194 199 208 216 197 181 199 200 206 206 202 209 219 226 229 232 235 236 235 239 243 245 247 250 253 254 255 256
157 157 159 160 161 160 162 171 175 179 183 189 193 196 199 201 202 204 206 203 203 185 208 215 197 176 187 219 233 232 233 234 237 238 236 237 242 245 248 249 252 254 256 257
155 154 154 155 158 161 167 173 175 183 189 196 197 198 204 207 209 216 220 188 189 180 213 201 175 181 200 229 233 235 235 235 236 240 243 242 241 243 246 249 252 253 254 256
155 153 154 160 168 171 171 176 179 186 194 198 200 199 207 214 215 213 214 201 183 190 216 197 186 192 213 230 233 234 236 239 243 248 245 247 248 246 246 247 250 254 257 258
157 162 159 171 175 177 178 183 187 185 193 198 200 199 206 211 216 214 214 214 206 205 226 216 194 199 220 229 233 235 238 236 231 236 245 252 254 255 256 255 257 257 258 259
164 165 170 179 181 187 188 191 196 196 198 203 207 204 206 210 213 216 219 220 213 210 224 231 222 211 219 227 232 234 236 239 242 243 244 245 249 252 254 253 255 257 258 259